This demonstration page uses our WeatherBlox Daily Observations layout. Learn more.

Left ArrowRight Arrow

Hourly Observations for April 5, 2020

Temp ( °F °C ) Dew Point ( °F °C ) Humidity (%) Winds ( mph kmh ) Pressure ( in mb ) Visibility ( mi km ) Precip ( " mm )
12:54 am 00:54 Clear 35 1.7 26 -3.3 70 70 S 5 7 30.14 1021 10 16.0934 0 0
1:54 am 01:54 Clear 33 0.6 25 -3.9 72 72 Calm 30.14 1021 10 16.0934 0 0
2:54 am 02:54 Clear 27 -2.8 23 -5 85 85 Calm 30.14 1021 10 16.0934 0 0
3:54 am 03:54 Clear 24 -4.4 19 -7.2 81 81 NNE 3 6 30.12 1020 10 16.0934 0 0
4:54 am 04:54 Clear 31 -0.6 26 -3.3 82 82 S 3 6 30.1 1019 10 16.0934 0 0
5:54 am 05:54 Clear 23 -5 19 -7.2 85 85 Calm 30.12 1020 10 16.0934 0 0
6:54 am 06:54 Clear 24 -4.4 22 -5.6 91 91 Calm 30.13 1020 10 16.0934 0 0
7:54 am 07:54 Sunny 28 -2.2 24 -4.4 85 85 Calm 30.14 1021 10 16.0934 0 0
8:54 am 08:54 Sunny 35 1.7 31 -0.6 85 85 Calm 30.13 1020 10 16.0934 0 0
9:54 am 09:54 Sunny 42 5.6 34 1.1 73 73 SSE 7 11 30.11 1020 10 16.0934 0 0
10:54 am 10:54 Sunny 48 8.9 35 1.7 61 61 SSE 10 17 30.13 1020 10 16.0934 0 0
11:54 am 11:54 Mostly Sunny 52 11.1 34 1.1 50 50 S 12 19 30.12 1020 10 16.0934 0 0
12:54 pm 12:54 Partly Cloudy 54 12.2 32 0 43 43 S 9 15 30.09 1019 10 16.0934 0 0
1:54 pm 13:54 Sunny 57 13.9 33 0.6 41 41 SSE 10 17 30.07 1018 10 16.0934 0 0
2:54 pm 14:54 Sunny 59 15 37 2.8 44 44 SSE 14 22 30.05 1018 10 16.0934 0 0
3:54 pm 15:54 Sunny 61 16.1 41 5 48 48 SSE 16 26 30.01 1016 10 16.0934 0 0
4:54 pm 16:54 Mostly Sunny 62 16.7 42 5.6 48 48 SSE 17 28 29.97 1015 10 16.0934 0 0
5:54 pm 17:54 Sunny 60 15.6 42 5.6 52 52 SSE 15 24 29.96 1015 10 16.0934 0 0
6:54 pm 18:54 Sunny 60 15.6 42 5.6 52 52 SE 14 22 29.94 1014 10 16.0934 0 0
7:54 pm 19:54 Sunny 57 13.9 41 5 55 55 SSE 16 26 29.93 1014 10 16.0934 0 0
8:54 pm 20:54 Partly Cloudy 53 11.7 41 5 64 64 S 13 20 29.95 1014 7 11.26538 0 0
9:54 pm 21:54 Cloudy with Haze 56 13.3 42 5.6 60 60 S 15 24 29.95 1014 4 6.43736 0 0
10:54 pm 22:54 Cloudy with Haze 55 12.8 42 5.6 62 62 SSE 16 26 29.94 1014 6 9.65604 0 0
11:54 pm 23:54 Cloudy 54 12.2 43 6.1 67 67 S 13 20 29.95 1014 9 14.48406 0 0

Powered by AerisWeather